EW7948 Weather Reports


time (UTC)temp
C
wind
direction
speed
KPH
gust
KPH
rain 1hr
cm
rain 24hr
cm
rain mn
cm
humidity
%
barometer
mb
20260906231515 23 334 11.3 24.1 0.00 0.00 0.00 49 1007.3
20260906230015 23 321 14.5 25.7 0.00 0.00 0.00 49 1007.4
20260906224506 22 324 14.5 25.7 0.00 0.00 0.00 50 1007.5
20260906223009 23 329 14.5 32.2 0.00 0.00 0.00 47 1007.5
20260906221532 23 305 9.7 27.4 0.00 0.00 0.00 46 1007.4
20260906220114 24 305 12.9 25.7 0.00 0.00 0.00 41 1007.3
20260906214509 25 309 8.0 20.9 0.00 0.00 0.00 41 1007.1
20260906213030 25 325 6.4 20.9 0.00 0.00 0.00 43 1007.4
20260906211526 26 279 8.0 20.9 0.00 0.00 0.00 34 1007.4
20260906210026 26 269 9.7 27.4 0.00 0.00 0.00 32 1007.1
20260906204543 26 230 12.9 24.1 0.00 0.00 0.00 35 1006.7
20260906203025 27 206 12.9 24.1 0.00 0.00 0.00 32 1006.5
20260906201524 27 211 11.3 22.5 0.00 0.00 0.00 27 1006.4
20260906200024 27 211 17.7 33.8 0.00 0.00 0.00 25 1006.3
20260906194527 28 243 3.2 11.3 0.00 0.00 0.00 25 1005.9
20260906193023 28 237 8.0 19.3 0.00 0.00 0.00 25 1006.0
20260906191528 29 238 11.3 22.5 0.00 0.00 0.00 24 1006.1
20260906190021 30 256 4.8 14.5 0.00 0.00 0.00 24 1006.3
20260906184520 30 166 6.4 12.9 0.00 0.00 0.00 23 1006.4
20260906183019 31 178 4.8 16.1 0.00 0.00 0.00 22 1006.5
20260906181613 31 138 3.2 12.9 0.00 0.00 0.00 21 1006.6
20260906180007 30 120 3.2 9.7 0.00 0.00 0.00 22 1006.9
20260906174504 28 253 4.8 9.7 0.00 0.00 0.00 26 1007.0
20260906173018 27 12 1.6 8.0 0.00 0.00 0.00 26 1007.2
20260906171516 26 344 4.8 9.7 0.00 0.00 0.00 27 1007.3
20260906170016 26 46 4.8 8.0 0.00 0.00 0.00 28 1007.1
20260906164515 27 344 8.0 12.9 0.00 0.00 0.00 28 1007.4
20260906163012 26 71 3.2 9.7 0.00 0.00 0.00 25 1007.2
20260906161514 25 34 3.2 6.4 0.00 0.00 0.00 33 1007.6
20260906160004 23 44 0.0 4.8 0.00 0.00 0.00 33 1007.7
20260906154601 22 49 0.0 1.6 0.00 0.00 0.00 35 1007.8
20260906153056 21 49 0.0 4.8 0.00 0.00 0.00 38 1007.7
20260906151600 20 49 1.6 4.8 0.00 0.00 0.00 40 1007.7
20260906150055 18 49 0.0 4.8 0.00 0.00 0.00 44 1007.9
20260906144555 17 49 1.6 4.8 0.00 0.00 0.00 48 1007.8
20260906143054 16 49 0.0 0.0 0.00 0.00 0.00 50 1007.9
20260906141516 15 49 0.0 4.8 0.00 0.00 0.00 54 1007.8
20260906140054 15 49 0.0 1.6 0.00 0.00 0.00 58 1007.5
20260906134551 13 49 0.0 3.2 0.00 0.00 0.00 64 1007.5
20260906133051 13 49 0.0 4.8 0.00 0.00 0.00 68 1007.1
20260906131546 14 49 0.0 1.6 0.00 0.00 0.00 55 1006.9
20260906130046 14 49 0.0 3.2 0.00 0.00 0.00 54 1006.8
20260906124544 14 49 0.0 1.6 0.00 0.00 0.00 60 1006.7
20260906123043 14 49 0.0 1.6 0.00 0.00 0.00 55 1006.4
20260906121543 14 49 0.0 3.2 0.00 0.00 0.00 62 1006.4
20260906120049 14 49 0.0 1.6 0.00 0.00 0.00 53 1006.2
20260906114538 14 49 0.0 0.0 0.00 0.00 0.00 56 1006.2
20260906113043 15 49 0.0 4.8 0.00 0.00 0.00 62 1006.1
20260906111533 15 53 0.0 0.0 0.00 0.00 0.00 54 1005.8
20260906110032 15 53 0.0 0.0 0.00 0.00 0.00 56 1005.8
20260906104535 15 53 0.0 0.0 0.00 0.00 0.00 56 1005.7
20260906103028 15 53 0.0 0.0 0.00 0.00 0.00 57 1005.7
20260906101528 16 53 0.0 0.0 0.00 0.00 0.00 57 1005.7
20260906100026 16 53 0.0 1.6 0.00 0.00 0.00 57 1005.5
20260906094535 16 53 0.0 3.2 0.00 0.00 0.00 53 1005.6
20260906093033 16 53 0.0 1.6 0.00 0.00 0.00 46 1005.4
20260906091519 16 53 0.0 3.2 0.00 0.00 0.00 47 1005.3
20260906090019 16 53 0.0 3.2 0.00 0.00 0.00 43 1005.3
20260906084521 17 53 0.0 0.0 0.00 0.00 0.00 57 1005.2
20260906083018 17 53 0.0 1.6 0.00 0.00 0.00 46 1005.0
20260906081515 17 53 0.0 3.2 0.00 0.00 0.00 46 1005.1
20260906080111 17 53 0.0 3.2 0.00 0.00 0.00 51 1005.1
20260906074530 17 53 0.0 1.6 0.00 0.00 0.00 53 1005.2
20260906073059 18 53 0.0 0.0 0.00 0.00 0.00 50 1005.1
20260906071602 18 53 0.0 1.6 0.00 0.00 0.00 54 1005.4
20260906070053 19 53 0.0 0.0 0.00 0.00 0.00 48 1005.2
20260906064551 20 53 0.0 1.6 0.00 0.00 0.00 42 1005.1
20260906063054 20 53 0.0 0.0 0.00 0.00 0.00 46 1005.0
20260906061556 21 53 0.0 1.6 0.00 0.00 0.00 39 1005.2
20260906060046 21 53 0.0 1.6 0.00 0.00 0.00 38 1005.1
20260906054546 21 53 0.0 9.7 0.00 0.00 0.00 35 1005.0
20260906053051 21 339 0.0 6.4 0.00 0.00 0.00 36 1004.9
20260906051545 21 339 1.6 3.2 0.00 0.00 0.00 41 1004.8
20260906050046 21 339 0.0 6.4 0.00 0.00 0.00 42 1004.8
20260906044544 22 339 3.2 6.4 0.00 0.00 0.00 42 1004.7
20260906043043 24 330 3.2 6.4 0.00 0.00 0.00 36 1004.7
20260906041543 26 178 1.6 6.4 0.00 0.00 0.00 28 1004.7
20260906040043 27 178 0.0 4.8 0.00 0.00 0.00 20 1004.6
20260906034547 27 175 6.4 12.9 0.00 0.00 0.00 20 1004.5
20260906033041 27 182 4.8 16.1 0.00 0.00 0.00 20 1004.4
20260906031541 27 180 0.0 8.0 0.00 0.00 0.00 21 1004.2
20260906030041 27 192 3.2 9.7 0.00 0.00 0.00 20 1003.9
20260906024551 28 191 4.8 11.3 0.00 0.00 0.00 20 1003.8
20260906023038 28 188 4.8 9.7 0.00 0.00 0.00 20 1003.4
20260906021538 28 184 1.6 8.0 0.00 0.00 0.00 20 1003.3
20260906020046 30 159 0.0 3.2 0.00 0.00 0.00 20 1003.2
20260906014550 30 159 3.2 11.3 0.00 0.00 0.00 17 1003.2
20260906013036 31 182 4.8 14.5 0.00 0.00 0.00 17 1003.4
20260906011541 31 222 8.0 12.9 0.00 0.00 0.00 16 1003.4
20260906010036 32 181 9.7 14.5 0.00 0.00 0.00 16 1003.5
20260906004541 32 159 4.8 12.9 0.00 0.00 0.00 16 1003.5
20260906003047 33 220 1.6 9.7 0.00 0.00 0.00 15 1003.4
20260906001504 33 182 1.6 4.8 0.00 0.00 0.00 15 1003.4
20260906000003 33 198 9.7 20.9 0.00 0.00 0.00 14 1003.4
20260905234503 33 190 4.8 17.7 0.00 0.00 0.00 14 1003.5
20260905233003 33 187 8.0 20.9 0.00 0.00 0.00 14 1003.6